User: anonymous
Location: Unspecified
(0.0000°N, 0.0000°E)
Time: 14:30:31
(UTC+02:00)
Language:

Cosmos 1898 Rocket - Orbit

View from above orbital plane
View from above orbital plane
View from above satellite
View from above satellite

Ground track
Ground track

The orbit data is extracted from the following two-line orbital elements,

1 18586U 87098B   14106.48768257  .00000311  00000-0  11508-3 0    27
2 18586 074.0073 266.6161 0021727 238.6357 175.7625 14.36395044381118
Epoch (UTC): 16 April 2014 11:42:15
Eccentricity: 0.0021727
inclination: 74.0073°
perigee height: 755 km
apogee height: 786 km
right ascension of ascending node: 266.6161°
argument of perigee: 238.6357°
revolutions per day: 14.36395044
mean anomaly at epoch: 175.7625°
orbit number at epoch: 38111

The dashed part of the orbit path shows where the satellite is in the earth's shadow,  

DLR